Terug naar catalogus

RISAT 2B

ActiefWetenschapVLEO
NORAD 44233·PAYLOAD·🇮🇳 India

Gelanceerd May 22, 2019 vanaf Satish Dhawan Space Centre

Loading…

Volgende Passages (komende 24 uur)

TLE

VersSource: Space-Track

Epoch: Sep 14, 2026, 14:35 UTC

1 44233U 19028A   26257.60775590  .00002538  00000-0  20184-3 0  9993
2 44233  36.9967 184.0407 0006662  15.0407 345.0533 15.00876354401275

Volg RISAT 2B in realtime met AllMySat

Download on the App Store